WC0AA-WX Weather Reports


time (UTC)temp
F
wind
direction
speed
knots
gust
knots
rain 1hr
in
rain 24hr
in
rain mn
in
humidity
%
barometer
mb
20260906134345 81 190 0.0 3.5 0.00 0.00 0.00 84 1015.8
20260906115344 71 82 0.0 0.0 0.00 0.00 0.00 96 1014.7
20260906114344 71 259 0.0 0.0 0.00 0.00 0.00 96 1014.6
20260906112343 71 202 0.0 0.0 0.00 0.00 0.00 96 1014.6
20260906111343 72 225 0.0 0.0 0.00 0.00 0.00 95 1014.6
20260906105313 72 222 0.0 0.0 0.00 0.00 0.00 96 1014.6
20260906103313 71 57 0.0 0.0 0.00 0.00 0.00 96 1014.5
20260906102313 71 225 0.0 0.0 0.00 0.00 0.00 96 1014.5
20260906101313 71 225 0.0 0.0 0.00 0.00 0.00 96 1014.5
20260906100315 71 208 0.0 0.0 0.00 0.00 0.00 96 1014.4
20260906095243 72 202 0.0 0.0 0.00 0.00 0.00 95 1014.4
20260906094243 72 112 0.0 0.0 0.00 0.00 0.00 95 1014.5
20260906083459 73 225 0.0 0.0 0.00 0.00 0.00 92 1014.2
20260906083213 73 225 0.0 0.0 0.00 0.00 0.00 92 1014.2
20260906082213 73 225 0.0 0.0 0.00 0.00 0.00 92 1014.1
20260906081212 74 225 0.0 0.0 0.00 0.00 0.00 91 1014.1
20260906080213 74 202 0.0 0.0 0.00 0.00 0.00 90 1014.1
20260906075212 75 270 0.0 0.0 0.00 0.00 0.00 90 1014.1
20260906073212 74 210 0.0 0.0 0.00 0.00 0.00 91 1014.1
20260906072212 74 211 0.0 0.0 0.00 0.00 0.00 91 1014.1
20260906071212 74 241 0.0 0.0 0.00 0.00 0.00 91 1014.2
20260906055210 76 225 0.0 0.0 0.00 0.00 0.00 86 1014.4
20260906054210 76 207 0.0 0.0 0.00 0.00 0.00 88 1014.3
20260906053139 76 206 0.0 0.0 0.00 0.00 0.00 87 1014.3
20260906031226 80 261 0.0 9.6 0.00 0.00 0.00 82 1013.7
20260906030226 80 254 0.0 9.6 0.00 0.00 0.00 82 1013.4
20260906025226 80 193 0.0 9.6 0.00 0.00 0.00 80 1013.5
20260906023227 81 183 0.0 9.6 0.00 0.00 0.00 78 1013.0
20260906021225 82 180 0.0 9.6 0.00 0.00 0.00 75 1012.9